1531551600.82,24867,17.88,73934.0,3.99,3.89,3.97,0,*7E
1531551602.05,24868,17.94,73932.0,3.99,3.97,4.01,0,*76
1531551603.28,24869,17.94,73930.3,3.99,4.01,4.01,0,*7F
1531551604.46,24870,17.94,73934.8,3.99,3.85,3.85,0,*77
1531551605.67,24871,17.94,73922.3,4.01,3.89,3.89,0,*70
1531551606.85,24872,17.94,73926.3,4.03,3.89,3.93,0,*7A
1531551608.08,24873,17.88,73920.0,4.03,3.79,3.79,0,*70
1531551609.31,24874,17.88,73914.8,4.01,3.67,3.63,0,*71
1531551610.58,24875,17.88,73920.3,4.01,3.41,3.41,0,*74
1531551611.77,24876,17.94,73918.3,4.01,3.55,3.63,0,*72
1531551612.97,24877,17.88,73906.0,4.01,3.85,3.85,0,*76
1531551614.21,24878,17.94,73892.5,3.99,3.41,3.45,0,*7B
1531551615.45,24879,17.94,73882.3,3.99,3.75,3.67,0,*7D
1531551616.65,24880,17.94,73880.5,3.99,3.53,3.55,0,*7E
1531551617.82,24881,17.94,73888.5,3.99,3.55,3.63,0,*7C
1531551619.03,24882,17.94,73902.0,3.99,3.63,3.67,0,*7E
1531551620.26,24883,17.88,73892.3,3.99,3.75,3.79,0,*77
1531551621.46,24884,17.88,73902.5,3.99,3.53,3.55,0,*7A
1531551622.64,24885,17.88,73892.3,3.99,3.63,3.63,0,*7D
1531551623.82,24886,17.94,73884.0,3.99,3.29,3.29,0,*7E
1531551625.05,24887,17.94,73890.8,3.99,3.45,3.53,0,*78
1531551626.29,24888,17.94,73898.5,3.99,3.67,3.67,0,*70
1531551627.48,24889,17.88,73904.3,3.99,3.89,3.89,0,*71
1531551628.68,24890,17.88,73916.0,3.97,3.81,3.85,0,*73
1531551629.92,24891,17.88,73912.5,3.99,3.79,3.75,0,*74
1531551631.18,24892,17.88,73916.3,3.97,3.75,3.75,0,*75
1531551632.37,24893,17.94,73924.5,3.99,3.89,3.89,0,*7A
1531551633.6,24894,17.88,73912.0,3.99,3.97,3.97,0,*7D
1531551634.78,24895,17.94,73916.3,3.99,3.89,3.89,0,*7C
1531551635.99,24896,17.88,73906.8,3.97,3.85,3.93,0,*76
1531551637.2,24897,17.94,73918.0,3.99,3.89,4.01,0,*79
1531551638.43,24898,17.88,73910.8,3.99,4.01,4.01,0,*71
1531551639.69,24899,17.88,73912.3,4.01,3.75,3.67,0,*75
1531551640.95,24900,17.94,73910.5,4.01,3.75,3.67,0,*74
1531551642.17,24901,17.88,73914.0,4.01,3.79,3.85,0,*75
1531551643.44,24902,17.94,73924.0,4.01,3.75,3.75,0,*75
1531551644.67,24903,17.88,73910.8,4.01,3.03,2.95,0,*7A
1531551645.92,24904,17.88,73890.3,4.01,2.73,2.73,0,*73
1531551647.18,24905,17.88,73884.5,3.97,2.59,2.55,0,*76
1531551648.41,24906,17.94,73892.0,3.99,2.81,2.81,0,*77
1531551649.62,24907,17.94,73894.0,3.95,3.29,3.29,0,*7A
1531551650.87,24908,17.88,73910.8,3.95,3.71,3.75,0,*71
1531551652.09,24909,17.88,73906.8,3.95,3.71,3.81,0,*7B
1531551653.3,24910,17.88,73900.5,3.99,3.89,3.97,0,*7F
1531551654.53,24911,17.88,73904.0,3.97,3.97,3.93,0,*7B
1531551655.75,24912,17.88,73900.3,3.97,3.93,3.93,0,*7C
1531551656.97,24913,17.88,73912.5,3.99,4.01,3.97,0,*7B
1531551658.19,24914,17.88,73912.8,3.97,3.93,3.93,0,*7A
1531551659.44,24915,17.88,73916.3,3.97,4.01,4.01,0,*7B
1531551660.67,24916,17.88,73914.5,3.99,3.67,3.79,0,*79
1531551661.88,24917,17.88,73914.3,3.99,3.79,3.85,0,*74
1531551663.09,24918,17.88,73908.0,4.01,3.89,3.89,0,*7E
1531551664.35,24919,17.94,73922.3,4.01,4.05,4.01,0,*7B
1531551665.55,24920,17.94,73926.5,4.01,4.11,4.11,0,*75
1531551666.8,24921,17.94,73928.8,4.01,3.97,3.97,0,*74
1531551668.03,24922,17.88,73934.3,4.01,3.89,3.97,0,*78
1531551669.29,24923,17.88,73928.5,4.01,3.53,3.45,0,*71
1531551670.55,24924,17.94,73928.0,4.01,2.81,2.81,0,*71
1531551671.78,24925,17.94,73928.3,4.01,3.03,2.95,0,*7E
1531551673.01,24926,17.88,73914.8,3.99,2.73,2.81,0,*78
1531551674.22,24927,17.88,73938.8,3.97,2.27,2.27,0,*7A
1531551675.47,24928,17.88,73918.3,3.97,2.09,1.97,0,*71
1531551676.69,24929,17.88,73904.8,3.93,2.13,2.17,0,*74
1531551677.93,24930,17.88,73912.0,3.93,2.17,2.17,0,*78
1531551679.1,24931,17.94,73926.8,3.93,2.65,2.65,0,*79
1531551680.33,24932,17.94,73922.0,3.89,3.19,3.23,0,*78
1531551681.55,24933,17.88,73928.3,3.89,3.23,3.19,0,*79
1531551682.77,24934,17.94,73922.3,3.89,2.73,2.69,0,*7C
1531551684.02,24935,17.88,73916.0,3.87,2.51,2.47,0,*7F
1531551685.27,24936,17.88,73924.5,3.87,2.09,2.09,0,*7B
1531551686.5,24937,17.88,73916.5,3.85,1.85,1.93,0,*7F
1531551687.69,24938,17.94,73918.5,3.85,2.21,2.27,0,*71
1531551688.86,24939,17.94,73902.0,3.85,2.31,2.31,0,*76
1531551690.11,24940,17.88,73898.3,3.83,2.89,2.81,0,*76
1531551691.36,24941,17.88,73904.5,3.83,3.41,3.37,0,*7E
1531551692.58,24942,17.88,73884.8,3.83,3.25,3.19,0,*73
1531551693.84,24943,17.88,73890.8,3.83,3.41,3.49,0,*75
1531551695.03,24944,17.88,73894.8,3.83,3.63,3.63,0,*7A
1531551696.23,24945,17.94,73906.3,3.85,3.37,3.29,0,*72
1531551697.46,24946,17.88,73894.0,3.83,3.15,3.25,0,*7B
1531551698.71,24947,17.88,73912.5,3.83,3.19,3.19,0,*79
1531551699.93,24948,17.88,73898.0,3.85,3.03,3.11,0,*73
1531551701.11,24949,17.88,73890.0,3.85,2.91,2.91,0,*71
1531551702.36,24950,17.88,73898.8,3.83,3.15,3.19,0,*73
1531551703.57,24951,17.88,73910.3,3.85,3.15,3.25,0,*7B
1531551704.82,24952,17.88,73902.8,3.83,3.11,3.15,0,*79
1531551706.07,24953,17.88,73898.5,3.83,3.19,3.19,0,*7C
1531551707.32,24954,17.88,73918.0,3.83,3.41,3.49,0,*73
1531551708.54,24955,17.88,73904.3,3.85,3.49,3.49,0,*7C
1531551709.79,24956,17.88,73896.8,3.83,3.53,3.41,0,*7A
1531551711.01,24957,17.88,73906.8,3.85,3.53,3.53,0,*7E
1531551712.18,24958,17.88,73900.3,3.85,3.59,3.63,0,*78
1531551713.41,24959,17.94,73910.5,3.85,3.37,3.41,0,*71
1531551714.62,24960,17.88,73916.5,3.85,3.29,3.37,0,*75
1531551715.87,24961,17.94,73920.3,3.83,3.41,3.37,0,*7C
1531551717.06,24962,17.88,73916.5,3.85,3.19,3.25,0,*77
1531551718.28,24963,17.94,73908.3,3.85,3.19,3.19,0,*79
1531551719.46,24964,17.88,73928.3,3.85,3.29,3.29,0,*7E
1531551720.71,24965,17.88,73938.3,3.87,3.41,3.33,0,*78
1531551721.94,24966,17.88,73948.0,3.83,3.29,3.37,0,*75
1531551723.17,24967,17.88,73940.0,3.85,3.41,3.49,0,*75
1531551724.34,24968,17.94,73942.3,3.85,3.63,3.63,0,*72
1531551725.59,24969,17.94,73920.3,3.87,3.79,3.75,0,*7D
1531551726.79,24970,17.94,73922.3,3.85,3.41,3.59,0,*72
1531551728.03,24971,17.88,73928.3,3.85,3.41,3.49,0,*72
1531551729.24,24972,17.88,73944.5,3.87,3.55,3.53,0,*7D
1531551730.49,24973,17.88,73942.3,3.87,3.23,3.23,0,*7A
1531551731.69,24974,17.88,73936.3,3.87,2.91,2.95,0,*79
1531551732.94,24975,17.94,73924.5,3.83,2.59,2.55,0,*74
1531551734.16,24976,17.94,73926.8,3.85,2.77,2.81,0,*74
1531551735.39,24977,17.88,73926.0,3.85,3.03,3.03,0,*7C
1531551736.62,24978,17.94,73928.5,3.85,2.77,2.77,0,*73
1531551737.82,24979,17.94,73932.3,3.83,2.91,2.99,0,*7C
1531551739.04,24980,17.88,73920.0,3.83,3.19,3.25,0,*7D
1531551740.3,24981,17.88,73912.8,3.83,3.41,3.41,0,*73
1531551741.56,24982,17.88,73914.8,3.83,3.41,3.41,0,*70
1531551742.76,24983,17.94,73922.5,3.85,3.37,3.29,0,*78
1531551744.0,24984,17.88,73928.3,3.83,3.19,3.19,0,*76
1531551745.22,24985,17.88,73924.3,3.83,3.29,3.37,0,*78
1531551746.47,24986,17.88,73926.5,3.83,3.49,3.41,0,*7C
1531551747.71,24987,17.88,73932.0,3.83,3.49,3.53,0,*7E
1531551748.96,24988,17.94,73934.3,3.83,3.49,3.53,0,*71
1531551750.2,24989,17.88,73928.8,3.83,3.53,3.53,0,*7B
1531551751.45,24990,17.88,73928.5,3.83,3.49,3.41,0,*7B
1531551752.65,24991,17.88,73928.3,3.83,3.25,3.29,0,*7E
1531551753.83,24992,17.94,73932.3,3.85,3.29,3.29,0,*77
1531551755.03,24993,17.94,73934.5,3.85,3.41,3.29,0,*78
1531551756.28,24994,17.88,73940.0,3.83,3.37,3.37,0,*77
1531551757.51,24995,17.88,73940.8,3.83,3.29,3.37,0,*79
1531551758.73,24996,17.88,73946.5,3.83,3.19,3.25,0,*7A
1531551759.95,24997,17.88,73948.8,3.83,3.19,3.25,0,*7B
1531551761.21,24998,17.88,73952.8,3.83,3.15,3.15,0,*7B
1531551762.46,24999,17.88,73952.0,3.83,3.15,3.19,0,*76
1531551763.72,25000,17.88,73952.8,3.83,3.15,3.15,0,*72
1531551764.94,25001,17.94,73956.5,3.85,2.69,2.77,0,*7A
1531551766.14,25002,17.88,73952.5,3.81,2.31,2.39,0,*7A
1531551767.34,25003,17.88,73954.3,3.79,2.35,2.27,0,*77
1531551768.59,25004,17.88,73956.0,3.79,2.25,2.21,0,*77
1531551769.79,25005,17.94,73958.3,3.79,2.35,2.35,0,*72
1531551771.01,25006,17.88,73948.0,3.77,2.39,2.39,0,*7F
1531551772.18,25007,17.94,73958.3,3.77,2.35,2.31,0,*7A
1531551773.41,25008,17.94,73956.3,3.77,2.39,2.39,0,*71
1531551774.63,25009,17.94,73958.8,3.73,2.21,2.21,0,*74
1531551775.86,25010,17.94,73946.5,3.75,2.35,2.43,0,*7B
1531551777.1,25011,17.88,73944.0,3.75,2.69,2.77,0,*74
1531551778.33,25012,17.88,73942.8,3.73,2.55,2.47,0,*7D
1531551779.55,25013,17.88,73940.5,3.71,2.21,2.31,0,*7C
1531551780.8,25014,17.88,73936.5,3.71,2.39,2.43,0,*77
1531551782.03,25015,17.88,73924.5,3.71,2.61,2.73,0,*78
1531551783.25,25016,17.88,73928.8,3.71,2.61,2.55,0,*7F
1531551784.51,25017,17.94,73932.3,3.71,2.39,2.39,0,*79
1531551785.77,25018,17.88,73926.3,3.71,2.51,2.43,0,*75
1531551787.03,25019,17.94,73930.0,3.71,2.51,2.51,0,*77
1531551788.27,25020,17.88,73924.5,3.71,2.55,2.55,0,*7D
1531551789.53,25021,17.88,73922.3,3.67,2.39,2.39,0,*7B
1531551790.74,25022,17.88,73922.5,3.65,2.35,2.47,0,*7F
1531551791.97,25023,17.94,73924.5,3.65,2.51,2.47,0,*7C
1531551793.2,25024,17.88,73922.3,3.63,2.47,2.43,0,*7E
1531551794.46,25025,17.88,73916.0,3.67,2.51,2.47,0,*78
1531551795.69,25026,17.88,73912.3,3.65,2.69,2.51,0,*75
1531551796.92,25027,17.94,73912.5,3.65,2.69,2.69,0,*7F
1531551798.13,25028,17.88,73906.5,3.63,2.91,2.89,0,*7F
1531551799.35,25029,17.88,73890.5,3.63,2.69,2.69,0,*77
1531551800.53,25030,17.88,73884.3,3.65,2.95,2.95,0,*79
1531551801.79,25031,17.88,73888.5,3.67,3.11,3.11,0,*7A
1531551803.02,25032,17.94,73888.8,3.65,3.23,3.23,0,*7B
1531551804.24,25033,17.88,73888.0,3.65,3.19,3.23,0,*73
1531551805.48,25034,17.88,73890.0,3.63,3.15,3.07,0,*78
1531551806.71,25035,17.94,73892.0,3.65,3.11,3.19,0,*74
1531551807.96,25036,17.88,73894.0,3.67,3.19,3.11,0,*75
1531551809.19,25037,17.88,73892.3,3.65,3.11,3.07,0,*79
1531551810.43,25038,17.88,73896.5,3.65,3.11,3.11,0,*71
1531551811.67,25039,17.88,73904.8,3.67,3.07,2.99,0,*74
1531551812.85,25040,17.94,73906.8,3.65,2.95,2.95,0,*7E
1531551814.05,25041,17.88,73906.0,3.67,2.99,2.99,0,*7D
1531551815.28,25042,17.88,73908.5,3.65,3.11,3.19,0,*74
1531551816.54,25043,17.88,73910.3,3.67,3.11,3.11,0,*7F
1531551817.78,25044,17.88,73912.3,3.65,3.11,3.07,0,*7D
1531551819.01,25045,17.94,73914.8,3.65,3.07,3.07,0,*7B
1531551820.22,25046,17.88,73914.3,3.67,2.91,2.95,0,*7E
1531551821.42,25047,17.88,73912.0,3.67,2.95,2.99,0,*77
1531551822.6,25048,17.94,73916.8,3.65,2.99,2.95,0,*7A
1531551823.81,25049,17.88,73918.3,3.67,2.95,2.95,0,*75
1531551825.01,25050,17.94,73916.8,3.67,2.99,2.99,0,*7D
1531551826.19,25051,17.88,73912.3,3.65,2.99,2.95,0,*72
1531551827.4,25052,17.88,73918.5,3.67,2.99,2.95,0,*73
1531551828.58,25053,17.88,73916.0,3.65,2.95,2.99,0,*70
1531551829.76,25054,17.88,73918.3,3.65,2.91,2.95,0,*7F
1531551830.94,25055,17.94,73920.8,3.65,2.95,2.91,0,*7E
1531551832.2,25056,17.88,73924.3,3.67,3.11,3.11,0,*7B
1531551833.45,25057,17.94,73924.5,3.67,3.19,3.19,0,*7A
1531551834.65,25058,17.94,73920.8,3.67,2.95,2.95,0,*75
1531551835.83,25059,17.88,73916.3,3.65,2.91,2.91,0,*76
1531551837.02,25060,17.88,73916.8,3.65,2.91,2.91,0,*7C
1531551838.27,25061,17.94,73918.5,3.67,3.11,3.11,0,*7F
1531551839.54,25062,17.88,73918.5,3.67,3.07,3.07,0,*7C
1531551840.74,25063,17.88,73912.5,3.65,2.95,3.07,0,*75
1531551842.0,25064,17.88,73912.8,3.67,3.11,3.11,0,*7A
1531551843.25,25065,17.94,73914.5,3.71,3.33,3.33,0,*7C
1531551844.51,25066,17.88,73920.0,3.67,3.45,3.45,0,*78
1531551845.75,25067,17.88,73918.3,3.65,3.41,3.41,0,*7B
1531551847.01,25068,17.88,73914.0,3.67,3.41,3.45,0,*72
1531551848.27,25069,17.94,73910.3,3.67,3.33,3.33,0,*77
1531551849.5,25070,17.94,73908.0,3.67,3.45,3.55,0,*7E
1531551850.69,25071,17.88,73904.8,3.67,3.55,3.55,0,*7E
1531551851.89,25072,17.88,73902.0,3.67,3.55,3.55,0,*7D
1531551853.14,25073,17.88,73896.8,3.67,3.45,3.53,0,*7B
1531551854.32,25074,17.88,73896.5,3.73,3.59,3.59,0,*7E
1531551855.57,25075,17.88,73896.5,3.71,3.33,3.33,0,*7D
1531551856.81,25076,17.88,73898.3,3.73,3.07,3.15,0,*7F
1531551858.04,25077,17.88,73896.8,3.71,2.99,3.03,0,*7D
1531551859.3,25078,17.88,73900.3,3.71,3.15,3.15,0,*70
1531551860.55,25079,17.88,73910.8,3.71,3.37,3.37,0,*71
1531551861.8,25080,17.88,73922.8,3.71,3.45,3.45,0,*77
1531551863.05,25081,17.88,73918.8,3.71,3.49,3.49,0,*76
1531551864.28,25082,17.88,73920.8,3.73,3.41,3.53,0,*74
1531551865.52,25083,17.88,73922.5,3.73,3.41,3.41,0,*76
1531551866.72,25084,17.88,73926.8,3.73,3.59,3.53,0,*7B
1531551867.9,25085,17.88,73930.8,3.73,3.63,3.59,0,*79
1531551869.12,25086,17.88,73928.5,3.75,3.63,3.71,0,*76
1531551870.35,25087,17.94,73934.5,3.73,3.75,3.75,0,*72
1531551871.59,25088,17.94,73934.3,3.73,3.75,3.71,0,*79
1531551872.79,25089,17.88,73934.5,3.75,3.63,3.59,0,*73
1531551874.04,25090,17.88,73934.8,3.75,3.71,3.75,0,*76
1531551875.23,25091,17.94,73934.8,3.75,3.59,3.63,0,*7A
1531551876.43,25092,17.88,73934.0,3.77,3.63,3.67,0,*76
1531551877.66,25093,17.88,73938.8,3.77,3.67,3.79,0,*7C
1531551878.84,25094,17.88,73940.3,3.77,3.81,3.81,0,*74
1531551880.1,25095,17.88,73940.8,3.79,3.75,3.75,0,*7B
1531551881.33,25096,17.94,73942.5,3.77,3.41,3.33,0,*73
1531551882.53,25097,17.88,73938.3,3.77,3.29,3.23,0,*7D
1531551883.75,25098,17.94,73938.0,3.77,3.19,3.19,0,*78
1531551884.94,25099,17.94,73936.3,3.77,3.53,3.55,0,*7F
1531551886.17,25100,17.88,73928.8,3.79,3.67,3.63,0,*72
1531551887.36,25101,17.94,73930.3,3.79,3.55,3.63,0,*72
1531551888.56,25102,17.88,73930.5,3.79,3.55,3.63,0,*71
1531551889.81,25103,17.88,73930.8,3.79,3.67,3.67,0,*75
1531551891.04,25104,17.88,73930.0,3.79,3.67,3.85,0,*7E
1531551892.27,25105,17.94,73932.3,3.77,3.79,3.75,0,*71
1531551893.53,25106,17.94,73934.3,3.79,3.75,3.75,0,*70
1531551894.7,25107,17.88,73930.5,3.81,3.85,3.85,0,*76
1531551895.87,25108,17.88,73930.0,3.81,3.81,3.85,0,*7D
1531551897.13,25109,17.88,73928.5,3.79,3.75,3.75,0,*7F
1531551898.36,25110,17.94,73934.3,3.81,3.79,3.79,0,*70
1531551899.59,25111,17.88,73930.3,3.83,3.75,3.81,0,*78
1531551900.84,25112,17.94,73930.5,3.83,3.71,3.71,0,*70
1531551902.07,25113,17.88,73928.0,3.81,3.71,3.71,0,*73
1531551903.27,25114,17.94,73926.8,3.81,3.67,3.59,0,*79
1531551904.53,25115,17.88,73924.8,3.83,3.71,3.75,0,*73
1531551905.78,25116,17.94,73926.0,3.83,3.75,3.75,0,*74
1531551906.98,25117,17.88,73926.8,3.83,3.81,3.85,0,*71
1531551908.18,25118,17.88,73926.0,3.83,3.85,3.89,0,*76
1531551909.35,25119,17.94,73926.0,3.85,3.81,3.85,0,*79
1531551910.53,25120,17.88,73922.8,3.85,3.81,3.85,0,*73
1531551911.7,25121,17.88,73914.8,3.85,3.85,3.89,0,*7A
1531551912.88,25122,17.88,73910.8,3.85,3.85,3.89,0,*79
1531551914.1,25123,17.94,73908.8,3.85,3.97,3.97,0,*74
1531551915.32,25124,17.94,73910.8,3.85,3.97,3.97,0,*73
1531551916.58,25125,17.88,73904.0,3.87,4.05,4.05,0,*70
1531551917.82,25126,17.88,73904.0,3.87,4.01,4.01,0,*73
1531551919.03,25127,17.88,73906.5,3.87,3.93,3.93,0,*72
1531551920.23,25128,17.94,73906.0,3.87,3.93,3.93,0,*7D
1531551921.46,25129,17.88,73910.3,3.89,3.79,3.79,0,*72
1531551922.64,25130,17.88,73918.8,3.89,3.89,3.85,0,*76
1531551923.82,25131,17.94,73918.5,3.89,3.89,3.89,0,*7B
1531551925.0,25132,17.94,73918.5,3.89,3.85,3.85,0,*78
1531551926.17,25133,17.88,73914.0,3.89,3.85,3.85,0,*79
1531551927.36,25134,17.88,73916.5,3.87,3.85,3.85,0,*70
1531551928.55,25135,17.88,73916.5,3.89,3.93,3.93,0,*7F
1531551929.78,25136,17.88,73912.8,3.89,4.01,4.05,0,*78
1531551931.0,25137,17.88,73920.0,3.89,4.01,4.01,0,*7D
1531551932.23,25138,17.88,73918.8,3.93,4.05,4.05,0,*79
1531551933.45,25139,17.94,73916.5,3.93,3.97,4.05,0,*74
1531551934.67,25140,17.94,73918.0,3.95,4.07,4.01,0,*76
1531551935.87,25141,17.94,73920.5,3.95,4.23,4.23,0,*71
1531551937.11,25142,17.88,73916.3,3.97,4.31,4.33,0,*72
1531551938.31,25143,17.88,73918.5,3.95,4.33,4.33,0,*73
1531551939.5,25144,17.94,73914.3,3.95,4.19,4.19,0,*74
1531551940.71,25145,17.94,73912.5,3.97,4.07,4.07,0,*77
1531551941.89,25146,17.94,73900.3,3.99,4.23,4.27,0,*7E
1531551943.07,25147,17.88,73896.0,3.99,4.23,4.27,0,*7F
1531551944.28,25148,17.94,73900.8,3.97,4.07,4.07,0,*7A
1531551945.46,25149,17.94,73902.5,3.99,4.15,4.23,0,*70
1531551946.65,25150,17.88,73900.5,3.99,4.15,4.23,0,*78
1531551947.83,25151,17.94,73914.3,3.99,4.23,4.27,0,*78
1531551949.01,25152,17.88,73906.5,4.03,4.15,4.07,0,*78
1531551950.22,25153,17.94,73914.8,4.01,3.89,3.89,0,*78
1531551951.45,25154,17.88,73912.8,4.01,3.79,3.85,0,*7C
1531551952.66,25155,17.94,73920.5,4.01,3.89,3.89,0,*7E
1531551953.92,25156,17.88,73906.8,4.01,3.75,3.75,0,*7D
1531551955.12,25157,17.88,73916.0,4.01,3.55,3.55,0,*7C
1531551956.38,25158,17.88,73918.5,4.01,3.41,3.45,0,*77
1531551957.64,25159,17.94,73920.8,4.01,3.19,3.15,0,*7E
1531551958.82,25160,17.94,73918.0,3.99,3.25,3.25,0,*7E
1531551960.07,25161,17.94,73908.3,3.97,2.69,2.69,0,*71
1531551961.28,25162,17.88,73904.3,3.99,3.03,2.95,0,*72
1531551962.51,25163,17.88,73914.8,3.97,3.25,3.23,0,*75
1531551963.76,25164,17.88,73928.5,3.97,3.53,3.53,0,*74
1531551965.01,25165,17.94,73936.8,3.97,2.77,2.69,0,*7A
1531551966.2,25166,17.94,73910.8,3.95,2.27,2.27,0,*74
1531551967.42,25167,17.88,73896.8,3.93,1.93,1.89,0,*78
1531551968.64,25168,17.94,73894.5,3.89,2.21,2.21,0,*77
1531551969.89,25169,17.94,73902.8,3.87,2.47,2.39,0,*71
1531551971.09,25170,17.88,73904.8,3.87,2.95,2.91,0,*74
1531551972.35,25171,17.94,73910.5,3.87,3.15,3.15,0,*71
1531551973.56,25172,17.94,73894.5,3.87,2.85,2.91,0,*77
1531551974.82,25173,17.88,73900.0,3.87,3.07,3.15,0,*70
1531551976.04,25174,17.94,73910.3,3.87,3.33,3.29,0,*7F
1531551977.29,25175,17.88,73902.3,3.87,3.45,3.53,0,*72
1531551978.48,25176,17.88,73904.5,3.87,3.55,3.55,0,*76
1531551979.67,25177,17.94,73914.0,3.87,3.63,3.63,0,*77
1531551980.91,25178,17.88,73914.5,3.89,3.67,3.75,0,*75
1531551982.16,25179,17.94,73926.0,3.87,3.75,3.79,0,*75
1531551983.39,25180,17.88,73922.5,3.89,3.79,3.79,0,*71
1531551984.57,25181,17.94,73928.5,3.89,3.89,3.93,0,*7B
1531551985.78,25182,17.94,73926.0,3.89,3.85,3.79,0,*70
1531551986.98,25183,17.94,73930.5,3.89,3.29,3.19,0,*71
1531551988.21,25184,17.94,73924.3,3.89,3.15,3.19,0,*79
1531551989.38,25185,17.94,73928.0,3.89,2.95,2.95,0,*74
1531551990.61,25186,17.88,73918.8,3.87,2.91,2.85,0,*7C
1531551991.8,25187,17.94,73896.3,3.87,2.91,2.91,0,*78
1531551993.06,25188,17.88,73904.3,3.87,3.03,3.15,0,*70
1531551994.28,25189,17.94,73908.0,3.87,3.29,3.23,0,*7C
1531551995.52,25190,17.94,73906.5,3.87,2.85,2.85,0,*7E
1531551996.72,25191,17.88,73902.0,3.87,2.31,2.35,0,*7B
1531551997.92,25192,17.94,73910.3,3.83,1.75,1.75,0,*78
1531551999.17,25193,17.94,73912.8,3.83,2.05,1.97,0,*71
1531552000.39,25194,17.94,73920.5,3.83,2.35,2.43,0,*7F
1531552001.64,25195,17.88,73906.0,3.79,1.67,1.63,0,*7E
1531552002.88,25196,17.88,73904.5,3.79,1.97,1.89,0,*76
1531552004.1,25197,17.88,73912.3,3.77,2.21,2.25,0,*72
1531552005.33,25198,17.88,73918.3,3.77,2.13,2.21,0,*78
1531552006.55,25199,17.94,73912.0,3.77,2.25,2.25,0,*78
1531552007.8,25200,17.88,73902.8,3.75,1.97,1.97,0,*79
1531552009.06,25201,17.88,73906.3,3.75,2.17,2.17,0,*78
1531552010.31,25202,17.94,73906.8,3.75,2.59,2.59,0,*7B
1531552011.51,25203,17.88,73896.8,3.73,2.89,2.91,0,*75
1531552012.73,25204,17.94,73892.0,3.73,3.19,3.19,0,*7B
1531552013.93,25205,17.88,73892.0,3.73,3.29,3.37,0,*75
1531552015.19,25206,17.94,73892.8,3.75,3.41,3.41,0,*7F
1531552016.41,25207,17.94,73896.5,3.75,3.53,3.63,0,*7D
1531552017.64,25208,17.88,73888.5,3.77,3.79,3.75,0,*7F
1531552018.87,25209,17.94,73892.5,3.77,3.79,3.79,0,*72
1531552020.1,25210,17.94,73894.8,3.77,3.67,3.67,0,*7A
1531552021.27,25211,17.94,73888.8,3.77,3.29,3.29,0,*7B
1531552022.47,25212,17.88,73876.3,3.77,3.33,3.29,0,*73
1531552023.7,25213,17.94,73892.0,3.79,3.63,3.67,0,*73
1531552024.92,25214,17.94,73898.3,3.81,3.79,3.71,0,*7F
1531552026.12,25215,17.94,73902.5,3.81,3.85,3.79,0,*75
1531552027.32,25216,17.94,73898.8,3.81,3.49,3.59,0,*74
1531552028.57,25217,17.94,73892.3,3.79,3.67,3.67,0,*73
1531552029.8,25218,17.94,73886.0,3.79,3.29,3.23,0,*76
1531552031.0,25219,17.94,73890.3,3.81,3.23,3.25,0,*7C
1531552032.21,25220,17.94,73880.3,3.79,3.29,3.29,0,*77
1531552033.41,25221,17.88,73880.8,3.81,3.23,3.25,0,*77
1531552034.64,25222,17.94,73902.8,3.81,3.49,3.45,0,*7E
1531552035.84,25223,17.94,73880.8,3.81,2.99,3.07,0,*75
1531552037.09,25224,17.88,73890.8,3.79,3.11,3.11,0,*73
1531552038.32,25225,17.88,73902.0,3.81,3.37,3.37,0,*75
1531552039.48,25226,17.94,73910.8,3.81,3.55,3.59,0,*7A
1531552040.71,25227,17.94,73924.0,3.81,3.71,3.71,0,*77
1531552041.94,25228,17.94,73932.3,3.81,3.71,3.71,0,*78
1531552043.17,25229,17.88,73876.3,3.81,1.09,1.09,0,*79
1531552044.41,25230,17.88,73890.8,3.79,0.79,0.67,0,*79
1531552045.66,25231,17.94,73892.8,3.75,1.43,1.37,0,*78
1531552046.9,25232,17.94,73888.5,3.75,1.59,1.59,0,*78
1531552048.09,25233,17.94,73896.5,3.71,0.97,0.97,0,*7D
1531552049.29,25234,17.94,73902.8,3.71,1.05,0.97,0,*40
1531552050.54,25235,17.94,73904.5,3.67,0.83,0.83,0,*7C
1531552051.76,25236,17.94,73902.8,3.65,0.71,0.55,0,*7B
1531552052.99,25237,17.94,73904.3,3.61,0.67,0.63,0,*7C
1531552054.24,25238,17.94,73906.0,3.61,0.87,0.79,0,*76
1531552055.48,25239,17.94,73904.8,3.57,0.79,0.79,0,*73
1531552056.71,25240,17.94,73906.3,3.57,0.91,1.01,0,*45
1531552057.91,25241,17.94,73906.3,3.55,1.01,0.95,0,*42
1531552059.16,25242,17.94,73908.8,3.53,0.79,0.79,0,*7B
1531552060.42,25243,17.94,73904.5,3.53,1.29,1.29,0,*7A
1531552061.65,25244,17.94,73902.3,3.51,1.25,1.25,0,*7F
1531552062.88,25245,17.94,73906.5,3.49,0.97,0.95,0,*75
1531552064.12,25246,17.94,73894.5,3.49,0.83,0.83,0,*74
1531552065.38,25247,17.88,73842.8,3.45,1.17,1.17,0,*79
1531552066.62,25248,17.94,73820.5,3.43,2.17,2.25,0,*71
1531552067.85,25249,17.94,73846.8,3.45,2.99,3.07,0,*71
1531552069.05,25250,17.88,73862.3,3.45,2.95,2.95,0,*7F
1531552070.25,25251,17.94,73882.0,3.49,2.99,2.91,0,*7A
1531552071.52,25252,17.88,73904.0,3.49,3.03,3.03,0,*71
1531552072.74,25253,17.94,73876.8,3.51,2.85,2.85,0,*79
1531552073.95,25254,17.94,73882.0,3.51,2.59,2.65,0,*71
1531552075.16,25255,17.94,73872.3,3.51,2.65,2.59,0,*70
1531552076.42,25256,17.94,73884.5,3.53,2.55,2.59,0,*72
1531552077.67,25257,17.94,73870.0,3.53,2.77,2.85,0,*72
1531552078.85,25258,17.94,73864.0,3.51,2.95,2.95,0,*72
1531552080.06,25259,17.94,73876.5,3.53,2.91,2.91,0,*71
1531552081.27,25260,17.94,73882.3,3.53,2.91,2.91,0,*7B
1531552082.52,25261,17.94,73874.3,3.53,2.59,2.47,0,*75
1531552083.75,25262,17.94,73872.3,3.53,1.83,1.63,0,*77
1531552085.0,25263,17.94,73860.8,3.53,1.51,1.51,0,*78
1531552086.23,25264,17.88,73856.0,3.51,2.69,2.69,0,*7D
1531552087.49,25265,17.94,73868.8,3.53,3.03,3.07,0,*7A
1531552088.76,25266,17.94,73882.5,3.53,3.41,3.41,0,*7D
1531552090.01,25267,17.94,73902.5,3.53,3.49,3.53,0,*77
1531552091.21,25268,17.88,73910.3,3.55,3.23,3.29,0,*7F
1531552092.45,25269,17.94,73896.5,3.55,2.17,2.17,0,*74
1531552093.68,25270,17.88,73872.8,3.55,2.05,2.05,0,*7C
1531552094.95,25271,17.94,73884.0,3.53,2.81,2.81,0,*7B
1531552096.18,25272,17.94,73892.8,3.53,3.25,3.37,0,*7B
1531552097.38,25273,17.94,73892.8,3.55,3.59,3.67,0,*72
1531552098.57,25274,17.94,73898.5,3.55,3.81,3.81,0,*78
1531552099.78,25275,17.94,73898.8,3.57,3.81,3.89,0,*73
1531552101.02,25276,17.88,73910.5,3.61,3.97,4.01,0,*75
1531552102.22,25277,17.94,73904.5,3.63,4.01,4.07,0,*78
1531552103.45,25278,17.94,73910.3,3.63,4.01,4.01,0,*71
1531552104.68,25279,17.94,73900.0,3.63,3.75,3.75,0,*70
1531552105.91,25280,17.94,73906.0,3.63,3.67,3.67,0,*76
1531552107.11,25281,17.94,73906.8,3.65,3.53,3.55,0,*77
1531552108.34,25282,17.88,73906.8,3.65,3.71,3.71,0,*72
1531552109.55,25283,17.94,73918.8,3.71,3.85,3.81,0,*72
1531552110.81,25284,17.94,73918.0,3.67,3.79,3.79,0,*76
1531552112.07,25285,17.94,73918.3,3.67,3.07,3.11,0,*70
1531552113.32,25286,17.88,73916.0,3.67,3.23,3.19,0,*7D
1531552114.57,25287,17.94,73914.8,3.67,3.11,3.19,0,*7D
1531552115.81,25288,17.94,73914.8,3.65,2.81,2.85,0,*7C
1531552117.01,25289,17.94,73908.8,3.67,2.95,2.95,0,*7B
1531552118.19,25290,17.94,73912.0,3.65,2.95,2.91,0,*75
1531552119.45,25291,17.94,73904.5,3.67,2.59,2.73,0,*7A
1531552120.65,25292,17.94,73904.5,3.67,2.95,2.95,0,*71
1531552121.91,25293,17.88,73900.8,3.67,3.23,3.23,0,*70
1531552123.16,25294,17.94,73896.5,3.67,3.19,3.11,0,*7F
1531552124.35,25295,17.94,73898.8,3.67,3.55,3.55,0,*76
1531552125.56,25296,17.94,73910.8,3.67,3.93,3.93,0,*75
1531552126.77,25297,17.94,73898.0,3.67,4.23,4.23,0,*74
1531552128.01,25298,17.94,73904.5,3.71,4.31,4.37,0,*7A
1531552129.18,25299,17.94,73898.0,3.73,4.11,4.11,0,*7F
1531552130.41,25300,17.94,73888.0,3.75,4.19,4.31,0,*72
1531552131.59,25301,17.94,73884.3,3.77,3.81,3.81,0,*7B
1531552132.77,25302,17.88,73884.3,3.77,3.89,3.93,0,*73
1531552133.95,25303,17.94,73890.0,3.77,4.15,4.23,0,*7C